Time,TemperatureF,DewpointF,PressureIn,WindDirection,WindDirectionDegrees,WindSpeedMPH,WindSpeedGustMPH,Humidity,HourlyPrecipIn,Conditions,Clouds,dailyrainin,SolarRadiationWatts/m^2,SoftwareType,DateUTC
2013-10-01 00:00:00,44.1,43.6,29.88,East,97,0.0,0.0,98,0.00,,,-99.99,1.0,HOBO +U30 +Weather +,2013-10-01 04:00:00,
2013-10-01 00:01:00,44.1,43.6,29.88,East,97,0.0,0.0,98,0.00,,,-99.99,1.0,HOBO +U30 +Weather +,2013-10-01 04:01:00,
2013-10-01 00:02:00,44.2,43.7,29.88,East,97,0.0,0.0,98,0.00,,,-99.99,1.0,HOBO +U30 +Weather +,2013-10-01 04:02:00,
2013-10-01 00:03:00,44.3,43.8,29.88,East,97,0.0,0.0,98,0.00,,,-99.99,1.0,HOBO +U30 +Weather +,2013-10-01 04:03:00,
2013-10-01 00:04:00,44.3,43.9,29.88,East,97,0.0,0.0,98,0.00,,,-99.99,1.0,HOBO +U30 +Weather +,2013-10-01 04:04:00,
2013-10-01 00:05:00,44.3,43.9,29.89,East,97,0.0,0.0,98,0.00,,,-99.99,1.0,HOBO +U30 +Weather +,2013-10-01 04:05:00,
2013-10-01 00:06:00,44.3,43.8,29.88,East,97,0.0,0.0,98,0.00,,,-99.99,1.0,HOBO +U30 +Weather +,2013-10-01 04:06:00,
2013-10-01 00:16:00,44.3,43.8,29.88,East,97,0.0,0.0,98,0.00,,,-99.99,1.0,HOBO +U30 +Weather +,2013-10-01 04:16:00,
2013-10-01 00:25:00,43.8,43.3,29.88,East,97,0.0,0.0,98,0.00,,,-99.99,1.0,HOBO +U30 +Weather +,2013-10-01 04:25:00,
2013-10-01 00:35:00,44.2,43.8,29.88,East,97,0.0,0.0,98,0.00,,,-99.99,1.0,HOBO +U30 +Weather +,2013-10-01 04:35:00,
2013-10-01 00:45:00,44.3,43.8,29.87,East,97,0.0,0.0,98,0.00,,,-99.99,1.0,HOBO +U30 +Weather +,2013-10-01 04:45:00,
2013-10-01 00:55:00,43.9,43.5,29.88,East,97,0.0,0.0,98,0.00,,,-99.99,1.0,HOBO +U30 +Weather +,2013-10-01 04:55:00,
2013-10-01 01:05:00,43.6,43.2,29.88,East,97,0.0,0.0,98,0.00,,,-99.99,1.0,HOBO +U30 +Weather +,2013-10-01 05:05:00,
2013-10-01 01:15:00,43.6,43.2,29.88,East,97,0.0,0.0,98,0.00,,,-99.99,1.0,HOBO +U30 +Weather +,2013-10-01 05:15:00,
2013-10-01 01:16:00,43.4,43.0,29.87,East,97,0.0,0.0,98,0.00,,,-99.99,1.0,HOBO +U30 +Weather +,2013-10-01 05:16:00,
2013-10-01 01:17:00,43.3,42.9,29.88,East,97,0.0,0.0,98,0.00,,,-99.99,1.0,HOBO +U30 +Weather +,2013-10-01 05:17:00,
2013-10-01 01:18:00,43.3,42.9,29.87,East,97,0.0,0.0,98,0.00,,,-99.99,1.0,HOBO +U30 +Weather +,2013-10-01 05:18:00,
2013-10-01 01:19:00,43.3,42.9,29.88,East,97,0.0,0.0,98,0.00,,,-99.99,1.0,HOBO +U30 +Weather +,2013-10-01 05:19:00,
2013-10-01 01:20:00,43.4,43.0,29.88,East,97,0.0,0.0,98,0.00,,,-99.99,1.0,HOBO +U30 +Weather +,2013-10-01 05:20:00,
2013-10-01 01:21:00,43.4,43.0,29.87,East,97,0.0,0.0,98,0.00,,,-99.99,1.0,HOBO +U30 +Weather +,2013-10-01 05:21:00,
2013-10-01 01:22:00,43.4,43.0,29.88,East,97,0.0,0.0,98,0.00,,,-99.99,1.0,HOBO +U30 +Weather +,2013-10-01 05:22:00,
2013-10-01 01:23:00,43.4,43.0,29.87,East,97,0.0,0.0,98,0.00,,,-99.99,1.0,HOBO +U30 +Weather +,2013-10-01 05:23:00,
2013-10-01 01:24:00,43.4,43.0,29.88,East,97,0.0,0.0,98,0.00,,,-99.99,1.0,HOBO +U30 +Weather +,2013-10-01 05:24:00,
2013-10-01 01:25:00,43.3,42.9,29.88,East,97,0.0,0.0,98,0.00,,,-99.99,1.0,HOBO +U30 +Weather +,2013-10-01 05:25:00,
2013-10-01 01:26:00,43.3,42.9,29.88,East,97,0.0,0.0,98,0.00,,,-99.99,1.0,HOBO +U30 +Weather +,2013-10-01 05:26:00,
2013-10-01 01:27:00,43.3,42.9,29.88,East,97,0.0,0.0,98,0.00,,,-99.99,1.0,HOBO +U30 +Weather +,2013-10-01 05:27:00,
2013-10-01 01:28:00,43.2,42.8,29.88,East,97,0.0,0.0,98,0.00,,,-99.99,1.0,HOBO +U30 +Weather +,2013-10-01 05:28:00,
2013-10-01 01:29:00,43.2,42.8,29.88,East,97,0.0,0.0,98,0.00,,,-99.99,1.0,HOBO +U30 +Weather +,2013-10-01 05:29:00,
2013-10-01 01:30:00,43.1,42.8,29.88,East,97,0.0,0.0,98,0.00,,,-99.99,1.0,HOBO +U30 +Weather +,2013-10-01 05:30:00,
2013-10-01 01:31:00,43.2,42.8,29.88,East,97,0.0,0.0,98,0.00,,,-99.99,1.0,HOBO +U30 +Weather +,2013-10-01 05:31:00,
2013-10-01 01:32:00,43.2,42.9,29.87,East,97,0.0,0.0,98,0.00,,,-99.99,1.0,HOBO +U30 +Weather +,2013-10-01 05:32:00,
2013-10-01 01:33:00,43.4,43.1,29.88,East,97,0.0,0.0,98,0.00,,,-99.99,1.0,HOBO +U30 +Weather +,2013-10-01 05:33:00,
2013-10-01 01:34:00,43.4,43.1,29.87,East,97,0.0,0.0,98,0.00,,,-99.99,1.0,HOBO +U30 +Weather +,2013-10-01 05:34:00,
2013-10-01 01:35:00,43.4,43.1,29.88,East,97,0.0,0.0,98,0.00,,,-99.99,1.0,HOBO +U30 +Weather +,2013-10-01 05:35:00,
2013-10-01 01:36:00,43.4,43.1,29.88,East,97,0.0,0.0,98,0.00,,,-99.99,1.0,HOBO +U30 +Weather +,2013-10-01 05:36:00,
2013-10-01 01:37:00,43.5,43.2,29.88,East,97,0.0,0.0,98,0.00,,,-99.99,1.0,HOBO +U30 +Weather +,2013-10-01 05:37:00,
2013-10-01 01:38:00,43.4,43.1,29.88,East,97,0.0,0.0,98,0.00,,,-99.99,1.0,HOBO +U30 +Weather +,2013-10-01 05:38:00,
2013-10-01 01:39:00,43.4,43.0,29.88,East,97,0.0,0.0,98,0.00,,,-99.99,1.0,HOBO +U30 +Weather +,2013-10-01 05:39:00,
2013-10-01 01:40:00,43.3,42.9,29.88,East,97,0.0,0.0,98,0.00,,,-99.99,1.0,HOBO +U30 +Weather +,2013-10-01 05:40:00,
2013-10-01 01:41:00,43.2,42.8,29.88,East,97,0.0,0.0,98,0.00,,,-99.99,1.0,HOBO +U30 +Weather +,2013-10-01 05:41:00,
2013-10-01 01:42:00,43.1,42.8,29.88,East,97,0.0,0.0,98,0.00,,,-99.99,1.0,HOBO +U30 +Weather +,2013-10-01 05:42:00,
2013-10-01 01:43:00,43.1,42.7,29.88,East,97,0.0,0.0,98,0.00,,,-99.99,1.0,HOBO +U30 +Weather +,2013-10-01 05:43:00,
2013-10-01 01:44:00,43.1,42.8,29.87,East,97,0.0,0.0,98,0.00,,,-99.99,1.0,HOBO +U30 +Weather +,2013-10-01 05:44:00,
2013-10-01 01:45:00,43.0,42.7,29.88,East,97,0.0,0.0,98,0.00,,,-99.99,1.0,HOBO +U30 +Weather +,2013-10-01 05:45:00,
2013-10-01 01:46:00,43.0,42.7,29.87,East,97,0.0,0.0,98,0.00,,,-99.99,1.0,HOBO +U30 +Weather +,2013-10-01 05:46:00,
2013-10-01 01:55:00,43.2,42.9,29.88,East,97,0.0,0.0,98,0.00,,,-99.99,1.0,HOBO +U30 +Weather +,2013-10-01 05:55:00,
2013-10-01 01:56:00,43.0,42.7,29.87,East,97,0.0,0.0,98,0.00,,,-99.99,1.0,HOBO +U30 +Weather +,2013-10-01 05:56:00,
2013-10-01 01:57:00,43.1,42.8,29.88,East,97,0.0,0.0,98,0.00,,,-99.99,1.0,HOBO +U30 +Weather +,2013-10-01 05:57:00,
2013-10-01 01:58:00,43.1,42.8,29.88,East,97,0.0,0.0,98,0.00,,,-99.99,1.0,HOBO +U30 +Weather +,2013-10-01 05:58:00,
2013-10-01 01:59:00,43.1,42.8,29.88,East,97,0.0,0.0,98,0.00,,,-99.99,1.0,HOBO +U30 +Weather +,2013-10-01 05:59:00,
2013-10-01 02:00:00,43.0,42.7,29.88,East,97,0.0,0.0,98,0.00,,,-99.99,1.0,HOBO +U30 +Weather +,2013-10-01 06:00:00,
2013-10-01 02:01:00,43.0,42.7,29.88,East,97,0.0,0.0,98,0.00,,,-99.99,1.0,HOBO +U30 +Weather +,2013-10-01 06:01:00,
2013-10-01 02:02:00,43.0,42.7,29.88,East,97,0.0,0.0,98,0.00,,,-99.99,1.0,HOBO +U30 +Weather +,2013-10-01 06:02:00,
2013-10-01 02:03:00,43.0,42.7,29.88,East,97,0.0,0.0,98,0.00,,,-99.99,1.0,HOBO +U30 +Weather +,2013-10-01 06:03:00,
2013-10-01 02:04:00,42.9,42.7,29.88,East,97,0.0,0.0,98,0.00,,,-99.99,1.0,HOBO +U30 +Weather +,2013-10-01 06:04:00,
2013-10-01 02:14:00,42.9,42.6,29.87,East,97,0.0,0.0,98,0.00,,,-99.99,1.0,HOBO +U30 +Weather +,2013-10-01 06:14:00,
2013-10-01 02:23:00,43.1,42.8,29.87,East,97,0.0,0.0,98,0.00,,,-99.99,1.0,HOBO +U30 +Weather +,2013-10-01 06:23:00,
2013-10-01 02:24:00,43.3,43.0,29.86,East,97,0.0,0.0,98,0.00,,,-99.99,1.0,HOBO +U30 +Weather +,2013-10-01 06:24:00,
2013-10-01 02:25:00,43.3,43.0,29.86,East,97,0.0,0.0,98,0.00,,,-99.99,1.0,HOBO +U30 +Weather +,2013-10-01 06:25:00,
2013-10-01 02:26:00,43.3,43.0,29.86,East,97,0.0,0.0,98,0.00,,,-99.99,1.0,HOBO +U30 +Weather +,2013-10-01 06:26:00,
2013-10-01 02:27:00,43.3,43.0,29.86,East,97,0.0,0.0,98,0.00,,,-99.99,1.0,HOBO +U30 +Weather +,2013-10-01 06:27:00,
2013-10-01 02:28:00,43.2,42.9,29.86,East,97,0.0,0.0,98,0.00,,,-99.99,1.0,HOBO +U30 +Weather +,2013-10-01 06:28:00,
2013-10-01 02:29:00,43.2,42.9,29.86,East,97,0.0,0.0,99,0.00,,,-99.99,1.0,HOBO +U30 +Weather +,2013-10-01 06:29:00,
2013-10-01 02:30:00,43.2,42.9,29.86,East,97,0.0,0.0,98,0.00,,,-99.99,1.0,HOBO +U30 +Weather +,2013-10-01 06:30:00,
2013-10-01 02:31:00,43.2,42.9,29.86,East,97,0.0,0.0,98,0.00,,,-99.99,1.0,HOBO +U30 +Weather +,2013-10-01 06:31:00,
2013-10-01 02:32:00,43.1,42.8,29.86,East,97,0.0,0.0,98,0.00,,,-99.99,1.0,HOBO +U30 +Weather +,2013-10-01 06:32:00,
2013-10-01 02:33:00,43.1,42.8,29.86,East,97,0.0,0.0,98,0.00,,,-99.99,1.0,HOBO +U30 +Weather +,2013-10-01 06:33:00,
2013-10-01 02:43:00,43.1,42.8,29.86,East,97,0.0,0.0,98,0.00,,,-99.99,1.0,HOBO +U30 +Weather +,2013-10-01 06:43:00,
2013-10-01 02:52:00,43.1,42.9,29.86,East,97,0.0,0.0,99,0.00,,,-99.99,1.0,HOBO +U30 +Weather +,2013-10-01 06:52:00,
2013-10-01 03:02:00,43.3,43.0,29.85,East,97,0.0,0.0,98,0.00,,,-99.99,1.0,HOBO +U30 +Weather +,2013-10-01 07:02:00,
2013-10-01 03:03:00,43.4,43.1,29.85,East,97,0.0,0.0,99,0.00,,,-99.99,1.0,HOBO +U30 +Weather +,2013-10-01 07:03:00,
2013-10-01 03:13:00,43.4,43.2,29.85,East,97,0.0,0.0,99,0.00,,,-99.99,1.0,HOBO +U30 +Weather +,2013-10-01 07:13:00,
2013-10-01 03:22:00,43.8,43.6,29.85,East,97,0.0,0.0,99,0.00,,,-99.99,1.0,HOBO +U30 +Weather +,2013-10-01 07:22:00,
2013-10-01 03:32:00,44.0,43.8,29.84,East,97,0.0,0.0,99,0.00,,,-99.99,1.0,HOBO +U30 +Weather +,2013-10-01 07:32:00,
2013-10-01 03:42:00,44.1,43.8,29.85,East,97,0.0,0.0,99,0.00,,,-99.99,1.0,HOBO +U30 +Weather +,2013-10-01 07:42:00,
2013-10-01 03:52:00,44.2,44.0,29.84,East,97,0.0,0.0,99,0.00,,,-99.99,1.0,HOBO +U30 +Weather +,2013-10-01 07:52:00,
2013-10-01 04:02:00,44.3,44.2,29.85,East,97,0.0,0.0,99,0.00,,,-99.99,1.0,HOBO +U30 +Weather +,2013-10-01 08:02:00,
2013-10-01 04:03:00,44.6,44.4,29.84,East,97,0.0,0.0,99,0.00,,,-99.99,1.0,HOBO +U30 +Weather +,2013-10-01 08:03:00,
2013-10-01 04:13:00,44.6,44.4,29.84,East,97,0.0,0.0,99,0.00,,,-99.99,1.0,HOBO +U30 +Weather +,2013-10-01 08:13:00,
2013-10-01 04:23:00,44.6,44.4,29.84,East,97,0.0,0.0,99,0.00,,,-99.99,1.0,HOBO +U30 +Weather +,2013-10-01 08:23:00,
2013-10-01 04:32:00,45.0,44.8,29.85,East,97,0.0,0.0,99,0.00,,,-99.99,1.0,HOBO +U30 +Weather +,2013-10-01 08:32:00,
2013-10-01 04:42:00,44.4,44.2,29.85,East,97,0.0,0.0,99,0.00,,,-99.99,1.0,HOBO +U30 +Weather +,2013-10-01 08:42:00,
2013-10-01 04:52:00,44.3,44.2,29.85,East,97,0.0,0.0,99,0.00,,,-99.99,1.0,HOBO +U30 +Weather +,2013-10-01 08:52:00,
2013-10-01 04:53:00,44.4,44.2,29.85,East,97,0.0,0.0,99,0.00,,,-99.99,1.0,HOBO +U30 +Weather +,2013-10-01 08:53:00,
2013-10-01 04:54:00,44.3,44.1,29.85,East,97,0.0,0.0,99,0.00,,,-99.99,1.0,HOBO +U30 +Weather +,2013-10-01 08:54:00,
2013-10-01 04:55:00,44.3,44.2,29.85,East,97,0.0,0.0,99,0.00,,,-99.99,1.0,HOBO +U30 +Weather +,2013-10-01 08:55:00,
2013-10-01 04:56:00,44.5,44.3,29.85,East,97,0.0,0.0,99,0.00,,,-99.99,1.0,HOBO +U30 +Weather +,2013-10-01 08:56:00,
2013-10-01 04:57:00,44.4,44.3,29.85,East,97,0.0,0.0,99,0.00,,,-99.99,1.0,HOBO +U30 +Weather +,2013-10-01 08:57:00,
2013-10-01 04:58:00,44.5,44.3,29.85,East,97,0.0,0.0,99,0.00,,,-99.99,1.0,HOBO +U30 +Weather +,2013-10-01 08:58:00,
2013-10-01 04:59:00,44.5,44.3,29.85,East,97,0.0,0.0,99,0.00,,,-99.99,1.0,HOBO +U30 +Weather +,2013-10-01 08:59:00,
2013-10-01 05:00:00,44.6,44.4,29.85,East,97,0.0,0.0,99,0.00,,,-99.99,1.0,HOBO +U30 +Weather +,2013-10-01 09:00:00,
2013-10-01 05:01:00,44.5,44.3,29.85,East,97,0.0,0.0,99,0.00,,,-99.99,1.0,HOBO +U30 +Weather +,2013-10-01 09:01:00,
2013-10-01 05:02:00,44.4,44.3,29.85,East,97,0.0,0.0,99,0.00,,,-99.99,1.0,HOBO +U30 +Weather +,2013-10-01 09:02:00,
2013-10-01 05:03:00,44.3,44.2,29.85,East,97,0.0,0.0,99,0.00,,,-99.99,1.0,HOBO +U30 +Weather +,2013-10-01 09:03:00,
2013-10-01 05:13:00,44.3,44.1,29.85,East,97,0.0,0.0,99,0.00,,,-99.99,1.0,HOBO +U30 +Weather +,2013-10-01 09:13:00,
2013-10-01 05:31:00,44.1,44.0,29.85,East,97,0.0,0.0,99,0.00,,,-99.99,1.0,HOBO +U30 +Weather +,2013-10-01 09:31:00,
2013-10-01 05:32:00,44.0,43.8,29.86,East,97,0.0,0.0,99,0.00,,,-99.99,1.0,HOBO +U30 +Weather +,2013-10-01 09:32:00,
2013-10-01 05:42:00,44.1,43.9,29.85,East,97,0.0,0.0,99,0.00,,,-99.99,1.0,HOBO +U30 +Weather +,2013-10-01 09:42:00,
2013-10-01 05:51:00,44.0,43.8,29.85,East,97,0.0,0.0,99,0.00,,,-99.99,1.0,HOBO +U30 +Weather +,2013-10-01 09:51:00,
2013-10-01 05:52:00,44.2,44.1,29.85,East,97,0.0,0.0,99,0.00,,,-99.99,1.0,HOBO +U30 +Weather +,2013-10-01 09:52:00,
2013-10-01 05:53:00,44.2,44.1,29.85,East,97,0.0,0.0,99,0.00,,,-99.99,1.0,HOBO +U30 +Weather +,2013-10-01 09:53:00,
2013-10-01 05:54:00,44.2,44.1,29.86,East,97,0.0,0.0,99,0.00,,,-99.99,1.0,HOBO +U30 +Weather +,2013-10-01 09:54:00,
2013-10-01 05:55:00,44.3,44.1,29.85,East,97,0.0,0.0,99,0.00,,,-99.99,1.0,HOBO +U30 +Weather +,2013-10-01 09:55:00,
2013-10-01 05:56:00,44.2,44.1,29.85,East,97,0.0,0.0,99,0.00,,,-99.99,1.0,HOBO +U30 +Weather +,2013-10-01 09:56:00,
2013-10-01 05:57:00,44.3,44.1,29.85,East,97,0.0,0.0,99,0.00,,,-99.99,1.0,HOBO +U30 +Weather +,2013-10-01 09:57:00,
2013-10-01 05:58:00,44.3,44.2,29.85,East,97,0.0,0.0,99,0.00,,,-99.99,1.0,HOBO +U30 +Weather +,2013-10-01 09:58:00,
2013-10-01 05:59:00,44.3,44.2,29.85,East,97,0.0,0.0,99,0.00,,,-99.99,1.0,HOBO +U30 +Weather +,2013-10-01 09:59:00,
2013-10-01 06:00:00,44.3,44.2,29.85,East,97,0.0,0.0,99,0.00,,,-99.99,1.0,HOBO +U30 +Weather +,2013-10-01 10:00:00,
2013-10-01 06:01:00,44.3,44.2,29.85,East,97,0.0,0.0,99,0.00,,,-99.99,1.0,HOBO +U30 +Weather +,2013-10-01 10:01:00,
2013-10-01 06:02:00,44.3,44.1,29.86,East,97,0.0,0.0,99,0.00,,,-99.99,1.0,HOBO +U30 +Weather +,2013-10-01 10:02:00,
2013-10-01 06:12:00,44.3,44.2,29.85,East,97,0.0,0.0,99,0.00,,,-99.99,1.0,HOBO +U30 +Weather +,2013-10-01 10:12:00,
2013-10-01 06:20:00,44.3,44.1,29.85,East,97,0.0,0.0,99,0.00,,,-99.99,1.0,HOBO +U30 +Weather +,2013-10-01 10:20:00,
2013-10-01 06:21:00,44.0,43.9,29.86,East,97,0.0,0.0,99,0.00,,,-99.99,1.0,HOBO +U30 +Weather +,2013-10-01 10:21:00,
2013-10-01 06:22:00,44.0,43.9,29.86,East,97,0.0,0.0,99,0.00,,,-99.99,1.0,HOBO +U30 +Weather +,2013-10-01 10:22:00,
2013-10-01 06:23:00,44.0,43.9,29.86,East,97,0.0,0.0,99,0.00,,,-99.99,1.0,HOBO +U30 +Weather +,2013-10-01 10:23:00,
2013-10-01 06:24:00,44.0,43.8,29.86,East,97,0.0,0.0,99,0.00,,,-99.99,1.0,HOBO +U30 +Weather +,2013-10-01 10:24:00,
2013-10-01 06:25:00,44.0,43.8,29.86,East,97,0.0,0.0,99,0.00,,,-99.99,1.0,HOBO +U30 +Weather +,2013-10-01 10:25:00,
2013-10-01 06:26:00,44.0,43.8,29.86,East,97,0.0,0.0,99,0.00,,,-99.99,1.0,HOBO +U30 +Weather +,2013-10-01 10:26:00,
2013-10-01 06:27:00,44.0,43.8,29.86,East,97,0.0,0.0,99,0.00,,,-99.99,1.0,HOBO +U30 +Weather +,2013-10-01 10:27:00,
2013-10-01 06:28:00,43.9,43.8,29.86,East,97,0.0,0.0,99,0.00,,,-99.99,1.0,HOBO +U30 +Weather +,2013-10-01 10:28:00,
2013-10-01 06:29:00,43.9,43.8,29.86,East,97,0.0,0.0,99,0.00,,,-99.99,1.0,HOBO +U30 +Weather +,2013-10-01 10:29:00,
2013-10-01 06:30:00,43.8,43.7,29.86,East,97,0.0,0.0,99,0.00,,,-99.99,1.0,HOBO +U30 +Weather +,2013-10-01 10:30:00,
2013-10-01 06:31:00,43.9,43.8,29.86,East,97,0.0,0.0,99,0.00,,,-99.99,1.0,HOBO +U30 +Weather +,2013-10-01 10:31:00,
2013-10-01 06:32:00,43.8,43.7,29.86,East,97,0.0,0.0,99,0.00,,,-99.99,1.0,HOBO +U30 +Weather +,2013-10-01 10:32:00,
2013-10-01 06:33:00,43.8,43.7,29.85,East,97,0.0,0.0,99,0.00,,,-99.99,1.0,HOBO +U30 +Weather +,2013-10-01 10:33:00,
2013-10-01 06:34:00,43.8,43.7,29.86,East,97,0.0,0.0,99,0.00,,,-99.99,1.0,HOBO +U30 +Weather +,2013-10-01 10:34:00,
2013-10-01 06:35:00,43.8,43.7,29.86,East,97,0.0,0.0,99,0.00,,,-99.99,1.0,HOBO +U30 +Weather +,2013-10-01 10:35:00,
2013-10-01 06:36:00,43.8,43.7,29.85,East,97,0.0,0.0,99,0.00,,,-99.99,1.0,HOBO +U30 +Weather +,2013-10-01 10:36:00,
2013-10-01 06:37:00,43.8,43.7,29.86,East,97,0.0,0.0,99,0.00,,,-99.99,1.0,HOBO +U30 +Weather +,2013-10-01 10:37:00,
2013-10-01 06:38:00,43.8,43.7,29.85,East,97,0.0,0.0,99,0.00,,,-99.99,1.0,HOBO +U30 +Weather +,2013-10-01 10:38:00,
2013-10-01 06:39:00,43.8,43.7,29.85,East,97,0.0,0.0,99,0.00,,,-99.99,1.0,HOBO +U30 +Weather +,2013-10-01 10:39:00,
2013-10-01 06:40:00,43.8,43.7,29.86,East,97,0.0,0.0,99,0.00,,,-99.99,1.0,HOBO +U30 +Weather +,2013-10-01 10:40:00,
2013-10-01 06:41:00,43.8,43.7,29.86,East,97,0.0,0.0,99,0.00,,,-99.99,2.0,HOBO +U30 +Weather +,2013-10-01 10:41:00,
2013-10-01 06:42:00,43.7,43.6,29.86,East,97,0.0,0.0,99,0.00,,,-99.99,2.0,HOBO +U30 +Weather +,2013-10-01 10:42:00,
2013-10-01 06:43:00,43.7,43.6,29.86,East,97,0.0,0.0,99,0.00,,,-99.99,2.0,HOBO +U30 +Weather +,2013-10-01 10:43:00,
2013-10-01 06:44:00,43.7,43.6,29.86,East,97,0.0,0.0,99,0.00,,,-99.99,2.0,HOBO +U30 +Weather +,2013-10-01 10:44:00,
2013-10-01 06:45:00,43.7,43.6,29.86,East,97,0.0,0.0,99,0.00,,,-99.99,2.0,HOBO +U30 +Weather +,2013-10-01 10:45:00,
2013-10-01 06:46:00,43.7,43.6,29.86,East,97,0.0,0.0,99,0.00,,,-99.99,2.0,HOBO +U30 +Weather +,2013-10-01 10:46:00,
2013-10-01 06:47:00,43.7,43.6,29.86,East,97,0.0,0.0,99,0.00,,,-99.99,2.0,HOBO +U30 +Weather +,2013-10-01 10:47:00,
2013-10-01 06:48:00,43.7,43.6,29.86,East,97,0.0,0.0,99,0.00,,,-99.99,2.0,HOBO +U30 +Weather +,2013-10-01 10:48:00,
2013-10-01 06:49:00,43.7,43.6,29.86,East,97,0.0,0.0,99,0.00,,,-99.99,2.0,HOBO +U30 +Weather +,2013-10-01 10:49:00,
2013-10-01 06:50:00,43.7,43.6,29.86,East,97,0.0,0.0,99,0.00,,,-99.99,3.0,HOBO +U30 +Weather +,2013-10-01 10:50:00,
2013-10-01 06:51:00,43.7,43.6,29.86,East,97,0.0,0.0,99,0.00,,,-99.99,3.0,HOBO +U30 +Weather +,2013-10-01 10:51:00,
2013-10-01 06:52:00,43.7,43.7,29.87,East,97,0.0,0.0,99,0.00,,,-99.99,3.0,HOBO +U30 +Weather +,2013-10-01 10:52:00,
2013-10-01 07:00:00,43.7,43.6,29.87,East,97,0.0,0.0,99,0.00,,,-99.99,4.0,HOBO +U30 +Weather +,2013-10-01 11:00:00,
2013-10-01 07:02:00,43.7,43.7,29.86,East,97,0.0,0.0,99,0.00,,,-99.99,3.0,HOBO +U30 +Weather +,2013-10-01 11:02:00,
2013-10-01 07:10:00,43.7,43.6,29.86,East,97,0.0,0.0,99,0.00,,,-99.99,6.0,HOBO +U30 +Weather +,2013-10-01 11:10:00,
2013-10-01 07:19:00,43.7,43.7,29.87,East,97,0.0,0.0,99,0.00,,,-99.99,8.0,HOBO +U30 +Weather +,2013-10-01 11:19:00,
2013-10-01 07:29:00,43.9,43.8,29.87,East,97,0.0,0.0,99,0.00,,,-99.99,12.0,HOBO +U30 +Weather +,2013-10-01 11:29:00,
2013-10-01 07:39:00,44.8,44.8,29.87,East,97,0.0,0.0,100,0.00,,,-99.99,22.0,HOBO +U30 +Weather +,2013-10-01 11:39:00,
2013-10-01 07:40:00,46.7,46.8,29.87,East,97,0.0,0.0,100,0.00,,,-99.99,27.0,HOBO +U30 +Weather +,2013-10-01 11:40:00,
2013-10-01 07:50:00,46.9,46.9,29.87,East,97,0.0,0.0,100,0.00,,,-99.99,27.0,HOBO +U30 +Weather +,2013-10-01 11:50:00,
2013-10-01 07:59:00,49.8,49.8,29.87,East,97,0.0,0.0,100,0.00,,,-99.99,19.0,HOBO +U30 +Weather +,2013-10-01 11:59:00,
2013-10-01 08:09:00,48.6,48.6,29.87,East,97,0.0,0.0,99,0.00,,,-99.99,29.0,HOBO +U30 +Weather +,2013-10-01 12:09:00,
2013-10-01 08:19:00,52.6,52.6,29.87,East,97,0.0,0.0,99,0.00,,,-99.99,33.0,HOBO +U30 +Weather +,2013-10-01 12:19:00,
2013-10-01 08:20:00,54.1,53.5,29.87,ENE,74,0.0,0.0,97,0.00,,,-99.99,39.0,HOBO +U30 +Weather +,2013-10-01 12:20:00,
2013-10-01 08:30:00,54.3,53.6,29.87,ENE,69,0.0,0.0,97,0.00,,,-99.99,39.0,HOBO +U30 +Weather +,2013-10-01 12:30:00,
2013-10-01 08:39:00,55.3,53.8,29.87,NE,45,0.0,0.0,94,0.00,,,-99.99,54.0,HOBO +U30 +Weather +,2013-10-01 12:39:00,
2013-10-01 08:49:00,56.9,54.5,29.87,ENE,59,0.0,0.0,91,0.00,,,-99.99,74.0,HOBO +U30 +Weather +,2013-10-01 12:49:00,
2013-10-01 08:59:00,57.3,54.6,29.87,North,7,0.0,0.0,90,0.00,,,-99.99,89.0,HOBO +U30 +Weather +,2013-10-01 12:59:00,
2013-10-01 09:00:00,59.3,55.8,29.86,East,97,0.0,0.0,88,0.00,,,-99.99,104.0,HOBO +U30 +Weather +,2013-10-01 13:00:00,
2013-10-01 09:01:00,59.3,55.8,29.86,SE,124,0.0,0.0,88,0.00,,,-99.99,104.0,HOBO +U30 +Weather +,2013-10-01 13:01:00,
2013-10-01 09:02:00,59.4,55.9,29.85,SE,125,0.0,0.0,88,0.00,,,-99.99,108.0,HOBO +U30 +Weather +,2013-10-01 13:02:00,
2013-10-01 09:12:00,59.2,55.2,29.86,ESE,118,0.0,0.0,86,0.00,,,-99.99,106.0,HOBO +U30 +Weather +,2013-10-01 13:12:00,
2013-10-01 09:19:00,60.8,57.0,29.85,NE,42,0.0,0.0,87,0.00,,,-99.99,139.0,HOBO +U30 +Weather +,2013-10-01 13:19:00,
2013-10-01 09:29:00,61.3,56.8,29.85,North,355,0.0,0.0,85,0.00,,,-99.99,128.0,HOBO +U30 +Weather +,2013-10-01 13:29:00,
2013-10-01 09:39:00,61.3,56.9,29.85,East,83,0.0,0.0,85,0.00,,,-99.99,136.0,HOBO +U30 +Weather +,2013-10-01 13:39:00,
2013-10-01 09:49:00,62.9,57.5,29.85,ENE,60,0.0,0.0,82,0.00,,,-99.99,177.0,HOBO +U30 +Weather +,2013-10-01 13:49:00,
2013-10-01 09:59:00,63.9,57.9,29.85,NE,56,0.0,0.0,80,0.00,,,-99.99,193.0,HOBO +U30 +Weather +,2013-10-01 13:59:00,
2013-10-01 10:09:00,65.7,59.0,29.84,NNW,341,0.0,0.0,79,0.00,,,-99.99,207.0,HOBO +U30 +Weather +,2013-10-01 14:09:00,
2013-10-01 10:10:00,66.0,58.7,29.84,NNW,330,0.0,0.0,77,0.00,,,-99.99,221.0,HOBO +U30 +Weather +,2013-10-01 14:10:00,
2013-10-01 10:11:00,66.2,58.6,29.85,NE,55,0.0,0.0,76,0.00,,,-99.99,222.0,HOBO +U30 +Weather +,2013-10-01 14:11:00,
2013-10-01 10:21:00,66.0,58.5,29.84,North,355,0.0,0.0,76,0.00,,,-99.99,223.0,HOBO +U30 +Weather +,2013-10-01 14:21:00,
2013-10-01 10:29:00,65.8,57.7,29.84,NNE,29,0.0,0.0,75,0.00,,,-99.99,234.0,HOBO +U30 +Weather +,2013-10-01 14:29:00,
2013-10-01 10:39:00,67.4,59.0,29.84,East,80,0.0,0.0,74,0.00,,,-99.99,246.0,HOBO +U30 +Weather +,2013-10-01 14:39:00,
2013-10-01 10:40:00,67.4,58.0,29.84,NE,44,0.0,0.0,71,0.00,,,-99.99,259.0,HOBO +U30 +Weather +,2013-10-01 14:40:00,
2013-10-01 10:41:00,67.8,57.7,29.84,ENE,74,0.0,0.0,70,0.00,,,-99.99,261.0,HOBO +U30 +Weather +,2013-10-01 14:41:00,
2013-10-01 10:42:00,68.0,57.9,29.84,ENE,74,0.0,0.0,70,0.00,,,-99.99,263.0,HOBO +U30 +Weather +,2013-10-01 14:42:00,
2013-10-01 10:43:00,68.4,58.6,29.84,East,88,0.0,0.0,70,0.00,,,-99.99,263.0,HOBO +U30 +Weather +,2013-10-01 14:43:00,
2013-10-01 10:44:00,68.1,57.3,29.84,East,100,0.0,0.0,68,0.00,,,-99.99,264.0,HOBO +U30 +Weather +,2013-10-01 14:44:00,
2013-10-01 10:45:00,68.3,57.9,29.84,East,81,0.0,0.0,69,0.00,,,-99.99,267.0,HOBO +U30 +Weather +,2013-10-01 14:45:00,
2013-10-01 10:46:00,68.4,57.9,29.83,ENE,60,0.0,0.0,69,0.00,,,-99.99,268.0,HOBO +U30 +Weather +,2013-10-01 14:46:00,
2013-10-01 10:47:00,68.7,58.3,29.83,NE,48,0.0,0.0,69,0.00,,,-99.99,269.0,HOBO +U30 +Weather +,2013-10-01 14:47:00,
2013-10-01 10:48:00,69.2,57.8,29.84,North,4,0.0,0.0,67,0.00,,,-99.99,271.0,HOBO +U30 +Weather +,2013-10-01 14:48:00,
2013-10-01 10:49:00,69.4,58.4,29.83,ENE,66,0.0,0.0,68,0.00,,,-99.99,272.0,HOBO +U30 +Weather +,2013-10-01 14:49:00,
2013-10-01 10:50:00,69.7,58.2,29.83,NE,51,0.0,0.0,66,0.00,,,-99.99,273.0,HOBO +U30 +Weather +,2013-10-01 14:50:00,
2013-10-01 10:51:00,69.5,57.2,29.84,ENE,66,0.0,0.0,64,0.00,,,-99.99,274.0,HOBO +U30 +Weather +,2013-10-01 14:51:00,
2013-10-01 11:01:00,69.6,57.7,29.83,ENE,59,0.0,0.0,65,0.00,,,-99.99,276.0,HOBO +U30 +Weather +,2013-10-01 15:01:00,
2013-10-01 11:08:00,70.0,57.6,29.84,East,94,0.0,0.0,64,0.00,,,-99.99,284.0,HOBO +U30 +Weather +,2013-10-01 15:08:00,
2013-10-01 11:09:00,70.5,54.8,29.83,ENE,72,0.0,0.0,57,0.00,,,-99.99,298.0,HOBO +U30 +Weather +,2013-10-01 15:09:00,
2013-10-01 11:19:00,70.4,54.2,29.83,East,100,0.0,0.0,56,0.00,,,-99.99,299.0,HOBO +U30 +Weather +,2013-10-01 15:19:00,
2013-10-01 11:28:00,70.4,53.4,29.83,East,97,0.0,0.0,54,0.00,,,-99.99,312.0,HOBO +U30 +Weather +,2013-10-01 15:28:00,
2013-10-01 11:29:00,71.0,53.4,29.82,SE,132,0.0,0.0,53,0.00,,,-99.99,323.0,HOBO +U30 +Weather +,2013-10-01 15:29:00,
2013-10-01 11:39:00,70.6,53.8,29.83,SE,126,0.0,0.0,55,0.00,,,-99.99,324.0,HOBO +U30 +Weather +,2013-10-01 15:39:00,
2013-10-01 11:50:00,71.7,53.9,29.82,ESE,111,0.0,0.0,53,0.00,,,-99.99,334.0,HOBO +U30 +Weather +,2013-10-01 15:50:00,
2013-10-01 11:58:00,72.4,54.8,29.82,ESE,122,0.0,0.0,53,0.00,,,-99.99,344.0,HOBO +U30 +Weather +,2013-10-01 15:58:00,
2013-10-01 12:08:00,72.5,55.6,29.81,East,97,0.0,0.0,55,0.00,,,-99.99,354.0,HOBO +U30 +Weather +,2013-10-01 16:08:00,
2013-10-01 12:18:00,72.4,54.8,29.82,ESE,108,0.0,0.0,53,0.00,,,-99.99,363.0,HOBO +U30 +Weather +,2013-10-01 16:18:00,
2013-10-01 12:28:00,72.6,54.5,29.82,East,94,0.0,0.0,53,0.00,,,-99.99,372.0,HOBO +U30 +Weather +,2013-10-01 16:28:00,
2013-10-01 12:38:00,72.6,54.2,29.82,ESE,107,0.0,0.0,52,0.00,,,-99.99,379.0,HOBO +U30 +Weather +,2013-10-01 16:38:00,
2013-10-01 12:39:00,73.9,55.2,29.81,ESE,118,0.0,0.0,52,0.00,,,-99.99,384.0,HOBO +U30 +Weather +,2013-10-01 16:39:00,
2013-10-01 12:40:00,73.9,55.1,29.81,ESE,115,0.0,0.0,51,0.00,,,-99.99,384.0,HOBO +U30 +Weather +,2013-10-01 16:40:00,
2013-10-01 12:41:00,74.2,55.9,29.81,ENE,73,0.0,0.0,52,0.00,,,-99.99,386.0,HOBO +U30 +Weather +,2013-10-01 16:41:00,
2013-10-01 12:42:00,74.6,55.2,29.81,East,93,0.0,0.0,50,0.00,,,-99.99,386.0,HOBO +U30 +Weather +,2013-10-01 16:42:00,
2013-10-01 12:43:00,74.6,54.6,29.81,ESE,108,0.0,0.0,49,0.00,,,-99.99,387.0,HOBO +U30 +Weather +,2013-10-01 16:43:00,
2013-10-01 12:44:00,73.8,54.2,29.81,SE,124,0.0,0.0,50,0.00,,,-99.99,388.0,HOBO +U30 +Weather +,2013-10-01 16:44:00,
2013-10-01 12:45:00,73.5,55.1,29.80,ESE,112,0.0,0.0,52,0.00,,,-99.99,387.0,HOBO +U30 +Weather +,2013-10-01 16:45:00,
2013-10-01 12:46:00,73.5,54.5,29.80,ESE,102,0.0,0.0,51,0.00,,,-99.99,388.0,HOBO +U30 +Weather +,2013-10-01 16:46:00,
2013-10-01 12:47:00,73.8,54.8,29.80,East,101,0.0,0.0,51,0.00,,,-99.99,388.0,HOBO +U30 +Weather +,2013-10-01 16:47:00,
2013-10-01 12:48:00,73.9,56.0,29.80,East,101,0.0,0.0,53,0.00,,,-99.99,389.0,HOBO +U30 +Weather +,2013-10-01 16:48:00,
2013-10-01 12:49:00,74.4,55.7,29.80,East,94,0.0,0.0,52,0.00,,,-99.99,388.0,HOBO +U30 +Weather +,2013-10-01 16:49:00,
2013-10-01 12:59:00,74.7,55.8,29.80,ENE,62,0.0,0.0,51,0.00,,,-99.99,389.0,HOBO +U30 +Weather +,2013-10-01 16:59:00,
2013-10-01 13:07:00,74.5,55.1,29.80,East,80,0.0,0.0,50,0.00,,,-99.99,396.0,HOBO +U30 +Weather +,2013-10-01 17:07:00,
2013-10-01 13:17:00,74.3,54.9,29.80,ESE,105,0.0,0.0,50,0.00,,,-99.99,401.0,HOBO +U30 +Weather +,2013-10-01 17:17:00,
2013-10-01 13:27:00,75.6,55.2,29.79,ESE,121,0.0,0.0,49,0.00,,,-99.99,403.0,HOBO +U30 +Weather +,2013-10-01 17:27:00,
2013-10-01 13:37:00,73.1,54.4,29.79,ESE,115,0.0,0.0,51,0.00,,,-99.99,406.0,HOBO +U30 +Weather +,2013-10-01 17:37:00,
2013-10-01 13:47:00,74.6,55.3,29.79,NNE,32,0.0,0.0,51,0.00,,,-99.99,408.0,HOBO +U30 +Weather +,2013-10-01 17:47:00,
2013-10-01 13:48:00,75.5,56.0,29.79,NNE,22,0.0,0.0,50,0.00,,,-99.99,409.0,HOBO +U30 +Weather +,2013-10-01 17:48:00,
2013-10-01 13:49:00,75.2,55.5,29.79,NE,49,0.0,0.0,50,0.00,,,-99.99,407.0,HOBO +U30 +Weather +,2013-10-01 17:49:00,
2013-10-01 13:50:00,75.0,55.7,29.79,ENE,74,0.0,0.0,51,0.00,,,-99.99,409.0,HOBO +U30 +Weather +,2013-10-01 17:50:00,
2013-10-01 13:51:00,75.0,54.7,29.79,SE,128,0.0,0.0,49,0.00,,,-99.99,407.0,HOBO +U30 +Weather +,2013-10-01 17:51:00,
2013-10-01 13:52:00,74.7,54.6,29.78,SE,131,0.0,0.0,49,0.00,,,-99.99,408.0,HOBO +U30 +Weather +,2013-10-01 17:52:00,
2013-10-01 13:53:00,74.4,54.3,29.79,ESE,108,0.0,0.0,49,0.00,,,-99.99,407.0,HOBO +U30 +Weather +,2013-10-01 17:53:00,
2013-10-01 13:54:00,74.5,54.4,29.78,ESE,110,0.0,0.0,49,0.00,,,-99.99,407.0,HOBO +U30 +Weather +,2013-10-01 17:54:00,
2013-10-01 13:55:00,74.9,54.9,29.78,East,87,0.0,0.0,49,0.00,,,-99.99,408.0,HOBO +U30 +Weather +,2013-10-01 17:55:00,
2013-10-01 13:56:00,75.0,54.9,29.78,ESE,111,0.0,0.0,49,0.00,,,-99.99,408.0,HOBO +U30 +Weather +,2013-10-01 17:56:00,
2013-10-01 13:57:00,75.2,54.7,29.79,East,88,0.0,0.0,49,0.00,,,-99.99,409.0,HOBO +U30 +Weather +,2013-10-01 17:57:00,
2013-10-01 13:58:00,74.9,55.0,29.78,ESE,117,0.0,0.0,49,0.00,,,-99.99,408.0,HOBO +U30 +Weather +,2013-10-01 17:58:00,
2013-10-01 14:08:00,75.1,55.9,29.79,NE,46,0.0,0.0,51,0.00,,,-99.99,408.0,HOBO +U30 +Weather +,2013-10-01 18:08:00,
2013-10-01 14:16:00,75.8,56.2,29.79,ESE,112,0.0,0.0,50,0.00,,,-99.99,407.0,HOBO +U30 +Weather +,2013-10-01 18:16:00,
2013-10-01 14:27:00,75.3,55.2,29.78,ENE,66,0.0,0.0,49,0.00,,,-99.99,407.0,HOBO +U30 +Weather +,2013-10-01 18:27:00,
2013-10-01 14:36:00,76.2,55.6,29.78,ESE,122,0.0,0.0,48,0.00,,,-99.99,402.0,HOBO +U30 +Weather +,2013-10-01 18:36:00,
2013-10-01 14:46:00,76.6,55.5,29.77,North,0,0.0,0.0,48,0.00,,,-99.99,399.0,HOBO +U30 +Weather +,2013-10-01 18:46:00,
2013-10-01 14:56:00,75.4,55.3,29.77,NNE,28,0.0,0.0,49,0.00,,,-99.99,393.0,HOBO +U30 +Weather +,2013-10-01 18:56:00,
2013-10-01 15:06:00,76.0,56.1,29.77,ENE,69,0.0,0.0,50,0.00,,,-99.99,387.0,HOBO +U30 +Weather +,2013-10-01 19:06:00,
2013-10-01 15:16:00,76.3,55.1,29.76,South,191,0.0,0.0,47,0.00,,,-99.99,379.0,HOBO +U30 +Weather +,2013-10-01 19:16:00,
2013-10-01 15:17:00,76.1,55.6,29.76,ENE,69,0.0,0.0,49,0.00,,,-99.99,371.0,HOBO +U30 +Weather +,2013-10-01 19:17:00,
2013-10-01 15:27:00,76.1,55.8,29.76,East,83,0.0,0.0,49,0.00,,,-99.99,369.0,HOBO +U30 +Weather +,2013-10-01 19:27:00,
2013-10-01 15:37:00,75.5,55.2,29.75,ESE,114,0.0,0.0,49,0.00,,,-99.99,362.0,HOBO +U30 +Weather +,2013-10-01 19:37:00,
2013-10-01 15:47:00,74.5,55.3,29.77,ESE,102,0.0,0.0,51,0.00,,,-99.99,349.0,HOBO +U30 +Weather +,2013-10-01 19:47:00,
2013-10-01 15:56:00,73.5,54.5,29.76,ESE,121,0.0,0.0,51,0.00,,,-99.99,337.0,HOBO +U30 +Weather +,2013-10-01 19:56:00,
2013-10-01 16:06:00,72.7,54.6,29.77,SE,129,0.0,0.0,53,0.00,,,-99.99,324.0,HOBO +U30 +Weather +,2013-10-01 20:06:00,
2013-10-01 16:16:00,71.9,54.3,29.77,ESE,115,0.0,0.0,53,0.00,,,-99.99,312.0,HOBO +U30 +Weather +,2013-10-01 20:16:00,
2013-10-01 16:17:00,72.0,55.1,29.78,ESE,119,0.0,0.0,55,0.00,,,-99.99,301.0,HOBO +U30 +Weather +,2013-10-01 20:17:00,
2013-10-01 16:27:00,71.9,54.7,29.78,SE,129,0.0,0.0,54,0.00,,,-99.99,297.0,HOBO +U30 +Weather +,2013-10-01 20:27:00,
2013-10-01 16:28:00,70.9,53.0,29.78,SE,126,0.0,0.0,53,0.00,,,-99.99,284.0,HOBO +U30 +Weather +,2013-10-01 20:28:00,
2013-10-01 16:29:00,70.9,53.2,29.78,ESE,107,0.0,0.0,53,0.00,,,-99.99,282.0,HOBO +U30 +Weather +,2013-10-01 20:29:00,
2013-10-01 16:39:00,70.8,52.9,29.78,ESE,121,0.0,0.0,53,0.00,,,-99.99,281.0,HOBO +U30 +Weather +,2013-10-01 20:39:00,
2013-10-01 16:48:00,70.2,53.0,29.78,ESE,117,0.0,0.0,54,0.00,,,-99.99,59.0,HOBO +U30 +Weather +,2013-10-01 20:48:00,
2013-10-01 16:58:00,69.7,52.9,29.78,ESE,121,0.0,0.0,55,0.00,,,-99.99,33.0,HOBO +U30 +Weather +,2013-10-01 20:58:00,
2013-10-01 17:08:00,68.4,52.9,29.79,SSE,147,0.0,0.0,57,0.00,,,-99.99,31.0,HOBO +U30 +Weather +,2013-10-01 21:08:00,
2013-10-01 17:18:00,67.6,53.2,29.79,ENE,62,0.0,0.0,59,0.00,,,-99.99,28.0,HOBO +U30 +Weather +,2013-10-01 21:18:00,
2013-10-01 17:28:00,67.6,52.9,29.79,SSW,213,0.0,0.0,59,0.00,,,-99.99,24.0,HOBO +U30 +Weather +,2013-10-01 21:28:00,
2013-10-01 17:38:00,66.9,52.5,29.79,SSE,154,0.0,0.0,59,0.00,,,-99.99,21.0,HOBO +U30 +Weather +,2013-10-01 21:38:00,
2013-10-01 17:48:00,64.5,53.1,29.80,SE,131,0.0,0.0,66,0.00,,,-99.99,18.0,HOBO +U30 +Weather +,2013-10-01 21:48:00,
2013-10-01 17:58:00,62.7,53.4,29.80,SE,131,0.0,0.0,71,0.00,,,-99.99,14.0,HOBO +U30 +Weather +,2013-10-01 21:58:00,
2013-10-01 18:08:00,61.3,53.1,29.80,SE,131,0.0,0.0,74,0.00,,,-99.99,12.0,HOBO +U30 +Weather +,2013-10-01 22:08:00,
2013-10-01 18:18:00,60.2,53.2,29.80,SE,131,0.0,0.0,77,0.00,,,-99.99,9.0,HOBO +U30 +Weather +,2013-10-01 22:18:00,
2013-10-01 18:28:00,59.3,53.1,29.80,SE,131,0.0,0.0,79,0.00,,,-99.99,6.0,HOBO +U30 +Weather +,2013-10-01 22:28:00,
2013-10-01 18:38:00,58.5,53.1,29.80,SE,131,0.0,0.0,82,0.00,,,-99.99,2.0,HOBO +U30 +Weather +,2013-10-01 22:38:00,
2013-10-01 18:48:00,58.1,53.5,29.81,SE,131,0.0,0.0,84,0.00,,,-99.99,1.0,HOBO +U30 +Weather +,2013-10-01 22:48:00,
2013-10-01 18:58:00,57.3,53.1,29.82,SE,131,0.0,0.0,85,0.00,,,-99.99,1.0,HOBO +U30 +Weather +,2013-10-01 22:58:00,
2013-10-01 18:59:00,56.6,52.7,29.81,SE,131,0.0,0.0,86,0.00,,,-99.99,1.0,HOBO +U30 +Weather +,2013-10-01 22:59:00,
2013-10-01 19:08:00,56.2,52.6,29.81,SE,131,0.0,0.0,87,0.00,,,-99.99,1.0,HOBO +U30 +Weather +,2013-10-01 23:08:00,
2013-10-01 19:09:00,56.5,52.7,29.81,SE,131,0.0,0.0,87,0.00,,,-99.99,1.0,HOBO +U30 +Weather +,2013-10-01 23:09:00,
2013-10-01 19:18:00,56.2,52.6,29.81,SE,131,0.0,0.0,87,0.00,,,-99.99,1.0,HOBO +U30 +Weather +,2013-10-01 23:18:00,
2013-10-01 19:28:00,55.9,52.2,29.82,SE,131,0.0,0.0,87,0.00,,,-99.99,1.0,HOBO +U30 +Weather +,2013-10-01 23:28:00,
2013-10-01 19:38:00,55.6,51.9,29.82,SE,131,0.0,0.0,87,0.00,,,-99.99,1.0,HOBO +U30 +Weather +,2013-10-01 23:38:00,
2013-10-01 19:48:00,55.1,51.4,29.83,SE,131,0.0,0.0,87,0.00,,,-99.99,1.0,HOBO +U30 +Weather +,2013-10-01 23:48:00,
2013-10-01 19:58:00,55.0,51.4,29.83,SE,131,0.0,0.0,87,0.00,,,-99.99,1.0,HOBO +U30 +Weather +,2013-10-01 23:58:00,
2013-10-01 19:59:00,54.2,50.8,29.83,SE,131,0.0,0.0,88,0.00,,,-99.99,1.0,HOBO +U30 +Weather +,2013-10-01 23:59:00,
2013-10-01 20:00:00,54.1,50.8,29.83,SE,131,0.0,0.0,88,0.00,,,-99.99,1.0,HOBO +U30 +Weather +,2013-10-02 00:00:00,
2013-10-01 20:08:00,54.2,50.9,29.83,SE,131,0.0,0.0,88,0.00,,,-99.99,1.0,HOBO +U30 +Weather +,2013-10-02 00:08:00,
2013-10-01 20:10:00,54.1,50.8,29.83,SE,131,0.0,0.0,88,0.00,,,-99.99,1.0,HOBO +U30 +Weather +,2013-10-02 00:10:00,
2013-10-01 20:18:00,54.2,50.9,29.82,SE,131,0.0,0.0,88,0.00,,,-99.99,1.0,HOBO +U30 +Weather +,2013-10-02 00:18:00,
2013-10-01 20:28:00,53.9,50.8,29.83,SE,131,0.0,0.0,89,0.00,,,-99.99,1.0,HOBO +U30 +Weather +,2013-10-02 00:28:00,
2013-10-01 20:38:00,54.2,51.2,29.83,SE,131,0.0,0.0,89,0.00,,,-99.99,1.0,HOBO +U30 +Weather +,2013-10-02 00:38:00,
2013-10-01 20:48:00,54.4,51.7,29.82,SE,131,0.0,0.0,90,0.00,,,-99.99,1.0,HOBO +U30 +Weather +,2013-10-02 00:48:00,
2013-10-01 20:58:00,54.6,52.1,29.83,SE,131,0.0,0.0,91,0.00,,,-99.99,1.0,HOBO +U30 +Weather +,2013-10-02 00:58:00,
2013-10-01 21:08:00,54.8,52.4,29.83,WNW,298,0.0,0.0,91,0.00,,,-99.99,1.0,HOBO +U30 +Weather +,2013-10-02 01:08:00,
2013-10-01 21:18:00,54.7,52.5,29.83,WNW,298,0.0,0.0,92,0.00,,,-99.99,1.0,HOBO +U30 +Weather +,2013-10-02 01:18:00,
2013-10-01 21:28:00,54.9,52.9,29.83,WNW,298,0.0,0.0,93,0.00,,,-99.99,1.0,HOBO +U30 +Weather +,2013-10-02 01:28:00,
2013-10-01 21:38:00,55.2,53.5,29.83,WNW,298,0.0,0.0,93,0.00,,,-99.99,1.0,HOBO +U30 +Weather +,2013-10-02 01:38:00,
2013-10-01 21:48:00,55.6,54.0,29.83,WNW,298,0.0,0.0,94,0.00,,,-99.99,1.0,HOBO +U30 +Weather +,2013-10-02 01:48:00,
2013-10-01 21:58:00,55.7,54.2,29.83,WNW,298,0.0,0.0,94,0.00,,,-99.99,1.0,HOBO +U30 +Weather +,2013-10-02 01:58:00,
2013-10-01 22:08:00,55.9,54.6,29.82,WNW,298,0.0,0.0,95,0.00,,,-99.99,1.0,HOBO +U30 +Weather +,2013-10-02 02:08:00,
2013-10-01 22:17:00,56.0,54.8,29.82,WNW,298,0.0,0.0,95,0.00,,,-99.99,1.0,HOBO +U30 +Weather +,2013-10-02 02:17:00,
2013-10-01 22:18:00,56.2,55.1,29.82,WNW,286,0.0,0.0,95,0.00,,,-99.99,1.0,HOBO +U30 +Weather +,2013-10-02 02:18:00,
2013-10-01 22:28:00,56.2,55.1,29.82,WNW,286,0.0,0.0,95,0.00,,,-99.99,1.0,HOBO +U30 +Weather +,2013-10-02 02:28:00,
2013-10-01 22:38:00,56.4,55.3,29.82,WSW,257,0.0,0.0,95,0.00,,,-99.99,1.0,HOBO +U30 +Weather +,2013-10-02 02:38:00,
2013-10-01 22:48:00,56.5,55.4,29.82,WSW,257,0.0,0.0,95,0.00,,,-99.99,1.0,HOBO +U30 +Weather +,2013-10-02 02:48:00,
2013-10-01 22:58:00,56.4,55.4,29.82,WSW,257,0.0,0.0,96,0.00,,,-99.99,1.0,HOBO +U30 +Weather +,2013-10-02 02:58:00,
2013-10-01 23:08:00,56.0,55.0,29.82,NW,309,0.0,0.0,96,0.00,,,-99.99,1.0,HOBO +U30 +Weather +,2013-10-02 03:08:00,
2013-10-01 23:18:00,55.4,54.5,29.82,NW,309,0.0,0.0,96,0.00,,,-99.99,1.0,HOBO +U30 +Weather +,2013-10-02 03:18:00,
2013-10-01 23:28:00,55.1,54.2,29.82,NW,309,0.0,0.0,96,0.00,,,-99.99,1.0,HOBO +U30 +Weather +,2013-10-02 03:28:00,
2013-10-01 23:38:00,55.0,54.2,29.82,NW,309,0.0,0.0,97,0.00,,,-99.99,1.0,HOBO +U30 +Weather +,2013-10-02 03:38:00,
2013-10-01 23:39:00,54.2,53.5,29.82,NW,309,0.0,0.0,97,0.00,,,-99.99,1.0,HOBO +U30 +Weather +,2013-10-02 03:39:00,
2013-10-01 23:40:00,54.1,53.4,29.82,NW,309,0.0,0.0,97,0.00,,,-99.99,1.0,HOBO +U30 +Weather +,2013-10-02 03:40:00,
2013-10-01 23:41:00,54.1,53.4,29.83,NW,309,0.0,0.0,97,0.00,,,-99.99,1.0,HOBO +U30 +Weather +,2013-10-02 03:41:00,
2013-10-01 23:42:00,54.1,53.4,29.82,NW,309,0.0,0.0,97,0.00,,,-99.99,1.0,HOBO +U30 +Weather +,2013-10-02 03:42:00,
2013-10-01 23:43:00,54.0,53.3,29.82,NW,309,0.0,0.0,97,0.00,,,-99.99,1.0,HOBO +U30 +Weather +,2013-10-02 03:43:00,
2013-10-01 23:44:00,54.0,53.3,29.82,NW,309,0.0,0.0,97,0.00,,,-99.99,1.0,HOBO +U30 +Weather +,2013-10-02 03:44:00,
2013-10-01 23:45:00,53.9,53.2,29.82,NW,309,0.0,0.0,97,0.00,,,-99.99,1.0,HOBO +U30 +Weather +,2013-10-02 03:45:00,
2013-10-01 23:46:00,53.9,53.2,29.82,NW,309,0.0,0.0,97,0.00,,,-99.99,1.0,HOBO +U30 +Weather +,2013-10-02 03:46:00,
2013-10-01 23:47:00,53.8,53.1,29.82,NW,309,0.0,0.0,97,0.00,,,-99.99,1.0,HOBO +U30 +Weather +,2013-10-02 03:47:00,
2013-10-01 23:48:00,53.8,53.1,29.82,NW,309,0.0,0.0,97,0.00,,,-99.99,1.0,HOBO +U30 +Weather +,2013-10-02 03:48:00,
2013-10-01 23:49:00,53.8,53.1,29.82,NW,309,0.0,0.0,97,0.00,,,-99.99,1.0,HOBO +U30 +Weather +,2013-10-02 03:49:00,
2013-10-01 23:59:00,53.8,53.1,29.81,NW,309,0.0,0.0,97,0.00,,,-99.99,1.0,HOBO +U30 +Weather +,2013-10-02 03:59:00,